Weather History for KBHM - March, 2014

Change the Weather History Date:

Friday, March 28, 2014

  Actual Average Record
Temperature  
Mean Temperature 61 °F 58 °F  
Max Temperature 64 °F 70 °F 89 °F (1919)
Min Temperature 57 °F 46 °F 28 °F (1937)
Degree Days  
Heating Degree Days 4 8  
Month to date heating degree days 345 300  
Since 1 July heating degree days 2843 2490  
Cooling Degree Days 0 1  
Month to date cooling degree days 0 18  
Year to date cooling degree days 3 22  
Growing Degree Days 10 (Base 50)    
Moisture  
Dew Point 55 °F    
Average Humidity 83    
Maximum Humidity 93    
Minimum Humidity 73    
Precipitation  
Precipitation 1.07 in 0.16 in 5.89 in (1951)
Month to date precipitation 4.39 4.75  
Year to date precipitation 11.32 14.12  
Snow  
Snow 0.00 in 0.00 in - ()
Month to date snowfall 0.0 0.6  
Since 1 July snowfall 5.0 1.4  
Snow Depth 0.00 in    
Sea Level Pressure  
Sea Level Pressure 30.02 in    
Wind  
Wind Speed 8 mph (SE)    
Max Wind Speed 22 mph    
Max Gust Speed 30 mph    
Visibility 8 miles    
Events Rain    
T = Trace of Precipitation, MM = Missing Value Source: NWS Daily Summary

Daily Weather History Graph

Daily Weather History Graph

Search for Another Location

Airport or City:

Trip Planner

Search our weather history database for the weather conditions in past years. The results will help you decide how hot, cold, wet, or windy it might be!

Date:

Astronomy

Mar. 28, 2014 Rise Set
Actual Time 6:39 AM CDT 7:04 PM CDT
Civil Twilight 6:14 AM CDT 7:29 PM CDT
Nautical Twilight 5:45 AM CDT 7:58 PM CDT
Astronomical Twilight 5:16 AM CDT 8:28 PM CDT
Moon 5:04 AM CDT (3/28) 5:05 PM CDT (3/28)
Length of Visible Light 13h 14m
Length of Day
12h 24m
Waning Crescent, 6% of the Moon is Illuminated
Mar 28
Waning Crescent
Mar 30
New
Apr 7
First Quarter
Apr 15
Full
Apr 22
Last Quarter

Hourly Weather History & Observations

Time (CDT) Temp. Dew Point Humidity Pressure Visibility Wind Dir Wind Speed Gust Speed Precip Events Conditions
12:53 AM 57.0 °F 54.0 °F 89% 30.06 in 5.0 mi SE 11.5 mph 18.4 mph 0.21 in Rain Rain
1:53 AM 57.0 °F 54.0 °F 89% 30.04 in 6.0 mi SE 16.1 mph 23.0 mph 0.15 in Rain Light Rain
2:53 AM 57.0 °F 54.0 °F 89% 30.02 in 6.0 mi SE 13.8 mph 20.7 mph 0.13 in Rain Light Rain
3:29 AM 57.2 °F 53.6 °F 88% 30.09 in 5.0 mi SSW 9.2 mph - 0.04 in Rain Light Rain
3:46 AM 57.2 °F 53.6 °F 88% 30.08 in 6.0 mi ESE 5.8 mph - 0.11 in Rain Light Rain
3:53 AM 57.0 °F 54.0 °F 89% 30.06 in 5.0 mi SE 10.4 mph 17.3 mph 0.13 in Rain Rain
4:28 AM 57.2 °F 53.6 °F 88% 30.06 in 5.0 mi ESE 11.5 mph - 0.12 in Rain Rain
4:53 AM 57.0 °F 54.0 °F 89% 30.06 in 4.0 mi ESE 4.6 mph - 0.22 in Rain Rain
5:53 AM 57.0 °F 54.0 °F 89% 30.04 in 8.0 mi SSE 12.7 mph 19.6 mph 0.04 in Rain Light Rain
6:53 AM 57.0 °F 54.0 °F 89% 30.03 in 7.0 mi SSE 17.3 mph 27.6 mph 0.10 in Rain Light Rain
7:53 AM 57.0 °F 54.0 °F 89% 30.01 in 7.0 mi SSE 16.1 mph 28.8 mph 0.06 in Rain Light Rain
8:24 AM 57.2 °F 53.6 °F 88% 30.04 in 10.0 mi SSE 10.4 mph 18.4 mph 0.01 in   Mostly Cloudy
8:53 AM 57.0 °F 55.0 °F 93% 30.08 in 10.0 mi South 12.7 mph 20.7 mph 0.01 in Rain Light Rain
9:53 AM 57.0 °F 55.0 °F 93% 30.06 in 4.0 mi SE 13.8 mph 20.7 mph 0.13 in Rain Rain
10:53 AM 57.0 °F 55.0 °F 93% 30.04 in 5.0 mi SSE 13.8 mph 25.3 mph 0.11 in Rain Light Rain
11:46 AM 57.2 °F 55.4 °F 94% 30.04 in 10.0 mi Calm Calm - 0.00 in   Overcast
11:53 AM 57.9 °F 55.0 °F 90% 30.05 in 10.0 mi Variable 4.6 mph - 0.00 in   Overcast
12:19 PM 59.0 °F 55.4 °F 88% 30.04 in 10.0 mi Variable 5.8 mph - N/A   Overcast
12:53 PM 60.1 °F 55.0 °F 83% 30.01 in 10.0 mi Variable 4.6 mph - N/A   Overcast
1:53 PM 61.0 °F 55.0 °F 81% 30.03 in 10.0 mi SE 6.9 mph - N/A   Overcast
2:53 PM 62.1 °F 55.0 °F 78% 30.01 in 10.0 mi Variable 4.6 mph - N/A   Overcast
3:53 PM 64.0 °F 55.0 °F 73% 30.00 in 10.0 mi Calm Calm - N/A   Overcast
4:53 PM 63.0 °F 55.0 °F 75% 29.98 in 10.0 mi ENE 4.6 mph - N/A   Overcast
5:53 PM 63.0 °F 55.0 °F 75% 29.97 in 10.0 mi Variable 4.6 mph - N/A   Overcast
6:53 PM 62.1 °F 55.9 °F 80% 29.97 in 10.0 mi NE 4.6 mph - N/A   Mostly Cloudy
7:53 PM 61.0 °F 55.0 °F 81% 29.96 in 10.0 mi East 8.1 mph - N/A   Mostly Cloudy
8:53 PM 61.0 °F 55.0 °F 81% 29.97 in 10.0 mi East 6.9 mph - N/A   Partly Cloudy
9:10 PM 60.8 °F 55.4 °F 82% 29.99 in 10.0 mi East 5.8 mph - N/A   Mostly Cloudy
9:53 PM 61.0 °F 55.9 °F 83% 30.01 in 10.0 mi Calm Calm - N/A   Overcast
10:53 PM 60.1 °F 57.0 °F 90% 29.99 in 10.0 mi ESE 3.5 mph - 0.00 in   Light Drizzle
11:42 PM 59.0 °F 55.4 °F 88% 29.97 in 10.0 mi NE 4.6 mph - 0.00 in   Overcast
11:53 PM 59.0 °F 57.0 °F 93% 29.96 in 10.0 mi Calm Calm - 0.00 in   Overcast